User: anonymous   Login
Location: Dackenheim
(49.5215°N, 8.1854°E)
Time: 16:44:08
(UTC+00:00)
Language:

STARS - Orbit

View from above orbital plane
View from above orbital plane
View from above satellite
View from above satellite

Ground track
Ground track

The orbit is defined by the following mean orbital elements,

1 33498U          26073.26965000 +.00000000 +00000-0 +49819-3 0 00000
2 33498  98.1467  16.8080 0010006 116.8727 243.3517 14.94994609    06
Epoch (UTC): 14 March 2026 06:28:17
Eccentricity: 0.0010006
inclination: 98.1467°
perigee height: 575 km
apogee height: 589 km
right ascension of ascending node: 16.8080°
argument of perigee: 116.8727°
revolutions per day: 14.94994609
mean anomaly at epoch: 243.3517°

The dashed part of the orbit path shows where the satellite is in the earth's shadow,  

DLR